Showing default

HULIANWANG DIGUI-05, 62327

Orbit data source: Space-Track

HULIANWANG DIGUI-05, 62327 is a payload satellite owned by Zhongguo Xingwang (CN) in LEO that was launched on Mon, 16 Dec 2024 UTC via a CHANG ZHENG 5B/YZ-2 launch vehicle from the Wenchang Satellite Launch Center (WSC). Payload-class satellites include a variety of spacecraft equipped with specific instruments for various scientific and technological missions. These include communications satellites like Starlink; space stations such as the ISS; scientific satellites like the Hubble; Earth observation satellites from companies like Planet Labs, Umbra, and HawkEye 360; GPS; miniature CubeSats for education and research; and military/defense satellites.

Loading next visibility...
Identifier
62327, 2024-240E
Orbit
LEO
Country
Flag of CNCN / PRC
Related business
Manufacturer
CAST?
Mission
Operational Civil Communications
Bus & Motor
GUOWANG C, Unknown motor
Mass
~800 kg wet, ~800 kg dry
Launch date (UTC)
2024-12-16 (1 year ago)
Launch vehicle
CHANG ZHENG 5B/YZ-2
Launch site
Wenchang Satellite Launch Center (WSC)
Object type
Payload
Rocket body
Debris
Shape & HBR
Box + 2 Pan, 5.0 m
Radar Cross Section
5.935 m², Large (>1 m²)

Expand to show TLE details & history
Last TLE update: 15 hours ago

TLE from 15 hours ago
0 HULIANWANG DIGUI-05
1 62327U 24240E   25341.23462546  .00000091  00000-0  17728-3 0  9997
2 62327  86.5036  48.1243 0001619  92.3748 267.7572 13.24413006 47238
Epoch: 2025-12-07T05:37Z
TLE epoch observation values (Epoch: 2025-12-07T05:37:51.639Z)
Latitude
0.00002°
Longitude
-112.59179°
Altitude
1,170.853 km
Speed
7.268 km/s
True Right ascension
03h 12m 29s
True Declination
0° 00' 00"
Sunlit
Object was in full shadow at epoch
Visualization orbit readout
Latitude
Unknown
Longitude
Unknown
Altitude
Unknown
Speed
Unknown
Apparent Right ascension
Unknown
Apparent Declination
Unknown
Sunlit
N/A
Visualization observer readout
Local Sidereal Time
18:33:53
Azimuth
Unknown
Elevation
Unknown
Doppler factor
Unknown
Orbital elements
Apogee altitude
1,166.252 km
Perigee altitude
1,163.809 km
Semi-major axis
7,543.168 km
Eccentricity
0.00016
Inclination
86.5036°
RAAN
48.1243°
Arg. of periapsis
92.3748°
True anomaly
267.73866°
Mean anomaly
267.7572°
Eccentric anomaly
267.74793°
Mean motion
3.31293 °/min
Orbital period
108.67 mins
BSTAR
0.00017728
Loading maneuver chart data...
Computing Atmospheric mass density...
Loading historical data...
Loading historical data...
Loading historical data...
Loading historical data...
Loading historical data...
Loading historical data...
Loading historical data...

Documentation

Showing up to 5 results
|